ITY699 OMDB-LIRF

Flight info

Callsign ITY699
Flight time 6h 16m
Altitude 36000
Route MIRO3F MIROT IMDAT KUVER AMBIK IMDOX BOXIK KUA LORAK ANBAR TAN FIRAS KTN VESAR NEKES TUKTU ALNYA KULOL ADASU AYT ERGIN NESIL BALSU LAVTA BAPSI KUMAN AFLUH IMR AGH LUSES YNN LAT LAT3P
Aircraft B78X/H-SDE2E3FGHIJ1RWXY/LB1

Departure

Time 2026-05-06 15:44
Airport Dubai International Airport (OMDB)

Arrival

Time 2026-05-06 22:00
Airport Rome–Fiumicino Leonardo da Vinci International Airport (LIRF)
Time Latitude Longitude Altitude Speed Heading
2026-05-06 15:14 25.24928 55.35833 28 ft 0 kts 31°
2026-05-06 15:28 25.24918 55.35826 27 ft 4 kts 26°
2026-05-06 15:28 25.24894 55.35815 26 ft 4 kts 11°
2026-05-06 15:28 25.24868 55.35812 25 ft 4 kts 352°
2026-05-06 15:29 25.24844 55.35818 25 ft 4 kts 329°
2026-05-06 15:29 25.24824 55.35834 25 ft 4 kts 304°
2026-05-06 15:29 25.24821 55.35840 28 ft 1 kts 301°
2026-05-06 15:33 25.24822 55.35838 25 ft 1 kts 301°
2026-05-06 15:33 25.24839 55.35805 24 ft 9 kts 300°
2026-05-06 15:33 25.24890 55.35718 28 ft 17 kts 304°
2026-05-06 15:34 25.24969 55.35592 27 ft 23 kts 303°
2026-05-06 15:34 25.25047 55.35453 27 ft 15 kts 301°
2026-05-06 15:34 25.25077 55.35399 27 ft 4 kts 301°
2026-05-06 15:34 25.25093 55.35370 27 ft 4 kts 301°
2026-05-06 15:35 25.25121 55.35317 27 ft 13 kts 302°
2026-05-06 15:35 25.25197 55.35203 27 ft 23 kts 307°
2026-05-06 15:35 25.25288 55.35047 27 ft 25 kts 302°
2026-05-06 15:35 25.25382 55.34909 27 ft 18 kts 328°
2026-05-06 15:36 25.25480 55.34914 27 ft 13 kts 26°
2026-05-06 15:36 25.25573 55.34973 27 ft 18 kts 31°
2026-05-06 15:36 25.25657 55.35047 27 ft 12 kts 65°
2026-05-06 15:36 25.25669 55.35135 27 ft 14 kts 63°
2026-05-06 15:37 25.25765 55.35216 27 ft 18 kts 31°
2026-05-06 15:37 25.25861 55.35280 27 ft 15 kts 31°
2026-05-06 15:37 25.25944 55.35338 27 ft 13 kts 38°
2026-05-06 15:37 25.25991 55.35421 27 ft 14 kts 71°
2026-05-06 15:38 25.25987 55.35540 27 ft 18 kts 112°
2026-05-06 15:38 25.25910 55.35688 27 ft 26 kts 120°
2026-05-06 15:38 25.25813 55.35874 27 ft 30 kts 120°
2026-05-06 15:38 25.25696 55.36083 27 ft 32 kts 122°
2026-05-06 15:39 25.25582 55.36279 28 ft 28 kts 122°
2026-05-06 15:39 25.25487 55.36451 28 ft 24 kts 121°
2026-05-06 15:39 25.25401 55.36606 28 ft 23 kts 121°
2026-05-06 15:39 25.25317 55.36760 28 ft 24 kts 122°
2026-05-06 15:40 25.25217 55.36939 28 ft 31 kts 121°
2026-05-06 15:40 25.25089 55.37168 31 ft 38 kts 122°
2026-05-06 15:40 25.24943 55.37432 36 ft 43 kts 121°
2026-05-06 15:40 25.24784 55.37721 43 ft 36 kts 121°
2026-05-06 15:41 25.24715 55.37843 46 ft 17 kts 122°
2026-05-06 15:41 25.24682 55.37916 47 ft 6 kts 101°
2026-05-06 15:41 25.24693 55.37954 46 ft 3 kts 56°
2026-05-06 15:41 25.24696 55.37958 47 ft 0 kts 49°
2026-05-06 15:42 25.24710 55.37972 48 ft 9 kts 43°
2026-05-06 15:43 25.24801 55.38002 46 ft 15 kts 346°
2026-05-06 15:43 25.24865 55.37927 46 ft 16 kts 303°
2026-05-06 15:43 25.25069 55.37560 37 ft 101 kts 301°
2026-05-06 15:43 25.25588 55.36630 42 ft 185 kts 303°
2026-05-06 15:44 25.26342 55.35141 236 ft 257 kts 300°
2026-05-06 15:44 25.27333 55.33231 652 ft 310 kts 303°
2026-05-06 15:44 25.28236 55.31024 1834 ft 322 kts 281°
2026-05-06 15:44 25.28275 55.28710 3252 ft 271 kts 264°
2026-05-06 15:45 25.27999 55.26659 3846 ft 279 kts 257°
2026-05-06 15:45 25.27441 55.24616 3922 ft 278 kts 245°
2026-05-06 15:45 25.26658 55.22667 4094 ft 273 kts 245°
2026-05-06 15:45 25.25936 55.20712 4251 ft 280 kts 253°
2026-05-06 15:46 25.25490 55.18543 4421 ft 301 kts 257°
2026-05-06 15:46 25.25005 55.16219 4796 ft 319 kts 255°
2026-05-06 15:46 25.24449 55.13757 5605 ft 340 kts 255°
2026-05-06 15:46 25.23868 55.11170 6680 ft 349 kts 255°
2026-05-06 15:47 25.23271 55.08542 7641 ft 360 kts 255°
2026-05-06 15:47 25.22652 55.05805 8742 ft 373 kts 255°
2026-05-06 15:47 25.22017 55.02993 9902 ft 382 kts 255°
2026-05-06 15:47 25.21366 55.00121 11043 ft 389 kts 255°
2026-05-06 15:48 25.20702 54.97193 12287 ft 395 kts 256°
2026-05-06 15:48 25.20036 54.94247 13549 ft 394 kts 257°
2026-05-06 15:48 25.19382 54.91351 14331 ft 373 kts 257°
2026-05-06 15:48 25.18762 54.88621 14685 ft 366 kts 257°
2026-05-06 15:49 25.18139 54.85876 14848 ft 371 kts 257°
2026-05-06 15:49 25.17511 54.83121 14923 ft 370 kts 257°
2026-05-06 15:49 25.16882 54.80358 14955 ft 371 kts 257°
2026-05-06 15:49 25.16252 54.77595 14983 ft 371 kts 257°
2026-05-06 15:50 25.15622 54.74832 14992 ft 371 kts 256°
2026-05-06 15:50 25.14992 54.72075 15087 ft 369 kts 256°
2026-05-06 15:50 25.14363 54.69320 15180 ft 374 kts 257°
2026-05-06 15:50 25.13725 54.66525 15266 ft 388 kts 257°
2026-05-06 15:51 25.13048 54.63571 15525 ft 403 kts 256°
2026-05-06 15:51 25.12375 54.60629 16885 ft 388 kts 256°
2026-05-06 15:51 25.11726 54.57799 18415 ft 373 kts 256°
2026-05-06 15:51 25.11122 54.54991 19277 ft 375 kts 262°
2026-05-06 15:52 25.11277 54.52128 19999 ft 378 kts 287°
2026-05-06 15:52 25.12468 54.49533 20864 ft 382 kts 303°
2026-05-06 15:52 25.13976 54.47098 21788 ft 387 kts 305°
2026-05-06 15:52 25.15618 54.44726 22722 ft 391 kts 310°
2026-05-06 15:53 25.17413 54.42441 23631 ft 395 kts 310°
2026-05-06 15:53 25.19236 54.40152 24383 ft 399 kts 310°
2026-05-06 15:53 25.21086 54.37844 25171 ft 403 kts 310°
2026-05-06 15:53 25.22954 54.35515 25945 ft 407 kts 309°
2026-05-06 15:54 25.24838 54.33163 26716 ft 411 kts 309°
2026-05-06 15:54 25.26744 54.30783 27485 ft 415 kts 308°
2026-05-06 15:54 25.28667 54.28380 28248 ft 419 kts 308°
2026-05-06 15:54 25.30605 54.25956 29004 ft 423 kts 308°
2026-05-06 15:55 25.32567 54.23502 29748 ft 428 kts 307°
2026-05-06 15:55 25.34546 54.21024 30406 ft 431 kts 307°
2026-05-06 15:55 25.36508 54.18565 31073 ft 434 kts 307°
2026-05-06 15:55 25.38539 54.16020 31745 ft 437 kts 307°
2026-05-06 15:56 25.40530 54.13524 32410 ft 440 kts 307°
2026-05-06 15:56 25.42586 54.10946 33064 ft 443 kts 307°
2026-05-06 15:56 25.44631 54.08379 33716 ft 446 kts 307°
2026-05-06 15:56 25.46660 54.05831 34248 ft 450 kts 307°
2026-05-06 15:57 25.48739 54.03219 34769 ft 454 kts 307°
2026-05-06 15:57 25.50838 54.00580 35261 ft 458 kts 307°
2026-05-06 15:57 25.52945 53.97930 35659 ft 458 kts 307°
2026-05-06 15:57 25.55051 53.95278 35844 ft 459 kts 307°
2026-05-06 15:58 25.59293 53.89934 35966 ft 463 kts 307°
2026-05-06 15:58 25.63542 53.84573 36003 ft 463 kts 307°
2026-05-06 15:59 25.67789 53.79210 36012 ft 463 kts 307°
2026-05-06 15:59 25.72035 53.73841 35927 ft 464 kts 307°
2026-05-06 16:00 25.76291 53.68455 35829 ft 463 kts 307°
2026-05-06 16:00 25.80521 53.63094 35813 ft 461 kts 307°
2026-05-06 16:01 25.84744 53.57735 35807 ft 461 kts 307°
2026-05-06 16:01 25.88956 53.52385 35802 ft 460 kts 306°
2026-05-06 16:02 25.93169 53.47026 35806 ft 461 kts 306°
2026-05-06 16:02 25.97387 53.41655 35809 ft 461 kts 306°
2026-05-06 16:03 26.01598 53.36287 35815 ft 460 kts 306°
2026-05-06 16:03 26.05773 53.30958 35815 ft 460 kts 306°
2026-05-06 16:04 26.09972 53.25593 35812 ft 459 kts 306°
2026-05-06 16:04 26.14163 53.20229 35815 ft 459 kts 306°
2026-05-06 16:05 26.18355 53.14860 35814 ft 459 kts 306°
2026-05-06 16:05 26.22546 53.09485 35814 ft 460 kts 306°
2026-05-06 16:06 26.26733 53.04110 35818 ft 458 kts 306°
2026-05-06 16:06 26.30901 52.98752 35820 ft 457 kts 305°
2026-05-06 16:07 26.35079 52.93375 35821 ft 460 kts 305°
2026-05-06 16:07 26.39260 52.87987 35821 ft 458 kts 305°
2026-05-06 16:08 26.43428 52.82608 35815 ft 458 kts 305°
2026-05-06 16:08 26.47593 52.77229 35813 ft 456 kts 305°
2026-05-06 16:09 26.51755 52.71845 35821 ft 459 kts 305°
2026-05-06 16:09 26.55932 52.66438 35823 ft 459 kts 305°
2026-05-06 16:10 26.60071 52.61072 35829 ft 458 kts 304°
2026-05-06 16:10 26.64231 52.55672 35828 ft 458 kts 304°
2026-05-06 16:11 26.68383 52.50276 35826 ft 457 kts 304°
2026-05-06 16:11 26.72527 52.44884 35830 ft 457 kts 304°
2026-05-06 16:12 26.75995 52.40366 35831 ft 457 kts 304°
2026-05-06 16:12 26.80102 52.35010 35829 ft 456 kts 304°
2026-05-06 16:13 26.84216 52.29640 35832 ft 453 kts 304°
2026-05-06 16:13 26.88333 52.24257 35832 ft 455 kts 304°
2026-05-06 16:14 26.92452 52.18865 35832 ft 455 kts 304°
2026-05-06 16:14 26.96574 52.13463 35833 ft 456 kts 304°
2026-05-06 16:15 27.00694 52.08057 35834 ft 456 kts 304°
2026-05-06 16:15 27.04811 52.02649 35836 ft 455 kts 303°
2026-05-06 16:16 27.08910 51.97257 35836 ft 454 kts 303°
2026-05-06 16:16 27.13013 51.91853 35832 ft 455 kts 303°
2026-05-06 16:17 27.17087 51.86481 35836 ft 455 kts 303°
2026-05-06 16:17 27.21184 51.81072 35836 ft 454 kts 303°
2026-05-06 16:18 27.25277 51.75662 35836 ft 454 kts 303°
2026-05-06 16:18 27.29365 51.70252 35835 ft 454 kts 303°
2026-05-06 16:19 27.33440 51.64851 35834 ft 453 kts 303°
2026-05-06 16:19 27.37514 51.59446 35838 ft 453 kts 303°
2026-05-06 16:20 27.41593 51.54027 35840 ft 454 kts 303°
2026-05-06 16:20 27.45670 51.48604 35837 ft 453 kts 302°
2026-05-06 16:21 27.49738 51.43187 35839 ft 451 kts 302°
2026-05-06 16:21 27.53772 51.37807 35839 ft 453 kts 302°
2026-05-06 16:22 27.57833 51.32385 35840 ft 452 kts 302°
2026-05-06 16:22 27.61887 51.26965 35841 ft 452 kts 302°
2026-05-06 16:23 27.65935 51.21531 35837 ft 451 kts 300°
2026-05-06 16:23 27.69407 51.15736 35839 ft 440 kts 291°
2026-05-06 16:24 27.72199 51.09618 35840 ft 438 kts 290°
2026-05-06 16:24 27.74916 51.03463 35843 ft 438 kts 289°
2026-05-06 16:25 27.77629 50.97303 35844 ft 437 kts 289°
2026-05-06 16:25 27.80331 50.91163 35848 ft 437 kts 289°
2026-05-06 16:26 27.83034 50.85015 35847 ft 437 kts 289°
2026-05-06 16:26 27.85731 50.78872 35845 ft 437 kts 289°
2026-05-06 16:27 27.88431 50.72714 35846 ft 437 kts 289°
2026-05-06 16:27 27.91107 50.66602 35850 ft 436 kts 289°
2026-05-06 16:28 27.93796 50.60450 35850 ft 437 kts 289°
2026-05-06 16:28 27.96482 50.54295 35852 ft 436 kts 289°
2026-05-06 16:29 27.99165 50.48139 35849 ft 436 kts 289°
2026-05-06 16:29 28.01838 50.41996 35849 ft 434 kts 289°
2026-05-06 16:30 28.04055 50.36893 35854 ft 435 kts 289°
2026-05-06 16:30 28.07178 50.29696 35849 ft 434 kts 289°
2026-05-06 16:31 28.09837 50.23556 35849 ft 435 kts 289°
2026-05-06 16:31 28.12499 50.17401 35850 ft 435 kts 289°
2026-05-06 16:32 28.15120 50.11285 35854 ft 435 kts 289°
2026-05-06 16:32 28.18090 50.05268 35855 ft 438 kts 292°
2026-05-06 16:33 28.21122 49.99293 35859 ft 438 kts 292°
2026-05-06 16:34 28.25679 49.90300 35852 ft 438 kts 292°
2026-05-06 16:34 28.28709 49.84304 35854 ft 438 kts 292°
2026-05-06 16:35 28.31734 49.78309 35855 ft 438 kts 292°
2026-05-06 16:35 28.34757 49.72312 35856 ft 438 kts 292°
2026-05-06 16:36 28.37776 49.66311 35856 ft 437 kts 291°
2026-05-06 16:36 28.40793 49.60307 35860 ft 437 kts 291°
2026-05-06 16:37 28.43796 49.54319 35860 ft 437 kts 291°
2026-05-06 16:37 28.46788 49.48348 35860 ft 438 kts 291°
2026-05-06 16:38 28.49796 49.42336 35859 ft 437 kts 291°
2026-05-06 16:38 28.52827 49.36342 35864 ft 437 kts 292°
2026-05-06 16:39 28.55608 49.30271 35860 ft 433 kts 289°
2026-05-06 16:39 28.58330 49.24151 35860 ft 436 kts 291°
2026-05-06 16:40 28.61282 49.18129 35852 ft 436 kts 291°
2026-05-06 16:40 28.64250 49.12123 35855 ft 435 kts 291°
2026-05-06 16:41 28.67215 49.06110 35857 ft 436 kts 291°
2026-05-06 16:41 28.70181 49.00087 35860 ft 436 kts 291°
2026-05-06 16:42 28.73142 48.94061 35859 ft 436 kts 291°
2026-05-06 16:42 28.76104 48.88025 35861 ft 436 kts 291°
2026-05-06 16:43 28.79036 48.81993 35863 ft 434 kts 290°
2026-05-06 16:43 28.82134 48.76019 35866 ft 439 kts 293°
2026-05-06 16:44 28.85316 48.70080 35869 ft 439 kts 293°
2026-05-06 16:44 28.88492 48.64151 35870 ft 437 kts 293°
2026-05-06 16:45 28.91662 48.58218 35874 ft 438 kts 293°
2026-05-06 16:45 28.94839 48.52267 35880 ft 439 kts 293°
2026-05-06 16:46 28.97985 48.46362 35870 ft 438 kts 293°
2026-05-06 16:46 29.01140 48.40432 35881 ft 437 kts 293°
2026-05-06 16:47 29.04301 48.34485 35885 ft 438 kts 293°
2026-05-06 16:47 29.07460 48.28532 35890 ft 438 kts 293°
2026-05-06 16:48 29.10610 48.22585 35891 ft 437 kts 293°
2026-05-06 16:48 29.13755 48.16639 35889 ft 436 kts 292°
2026-05-06 16:49 29.16895 48.10698 35890 ft 436 kts 292°
2026-05-06 16:49 29.20030 48.04754 35889 ft 436 kts 292°
2026-05-06 16:50 29.23161 47.98813 35891 ft 436 kts 292°
2026-05-06 16:50 29.26544 47.93014 35889 ft 441 kts 297°
2026-05-06 16:51 29.30193 47.87367 35893 ft 441 kts 297°
2026-05-06 16:51 29.33843 47.81765 35893 ft 441 kts 297°
2026-05-06 16:52 29.37506 47.76133 35918 ft 441 kts 297°
2026-05-06 16:52 29.41167 47.70495 35923 ft 441 kts 297°
2026-05-06 16:53 29.44810 47.64875 35933 ft 439 kts 297°
2026-05-06 16:53 29.48463 47.59232 35931 ft 441 kts 297°
2026-05-06 16:54 29.52119 47.53578 35922 ft 441 kts 297°
2026-05-06 16:54 29.55774 47.47917 35924 ft 441 kts 297°
2026-05-06 16:55 29.59423 47.42256 35930 ft 441 kts 297°
2026-05-06 16:55 29.63063 47.36601 35923 ft 440 kts 297°
2026-05-06 16:56 29.66708 47.30932 35925 ft 441 kts 297°
2026-05-06 16:56 29.70353 47.25255 35925 ft 441 kts 297°
2026-05-06 16:57 29.73987 47.19587 35927 ft 440 kts 297°
2026-05-06 16:57 29.77615 47.13920 35931 ft 439 kts 297°
2026-05-06 16:58 29.81239 47.08250 35931 ft 439 kts 297°
2026-05-06 16:58 29.84828 47.02630 35928 ft 438 kts 297°
2026-05-06 16:59 29.88439 46.96966 35940 ft 439 kts 297°
2026-05-06 16:59 29.92050 46.91294 35933 ft 439 kts 297°
2026-05-06 17:00 29.95072 46.86541 35937 ft 439 kts 297°
2026-05-06 17:00 29.98676 46.80867 35936 ft 438 kts 297°
2026-05-06 17:01 30.02274 46.75193 35939 ft 438 kts 297°
2026-05-06 17:01 30.05845 46.69552 35945 ft 438 kts 297°
2026-05-06 17:02 30.09441 46.63868 35947 ft 438 kts 297°
2026-05-06 17:02 30.13033 46.58180 35943 ft 437 kts 297°
2026-05-06 17:03 30.16624 46.52483 35940 ft 439 kts 297°
2026-05-06 17:03 30.20210 46.46790 35950 ft 438 kts 297°
2026-05-06 17:04 30.23801 46.41079 35951 ft 440 kts 297°
2026-05-06 17:04 30.27395 46.35354 35951 ft 440 kts 297°
2026-05-06 17:05 30.30984 46.29631 35954 ft 439 kts 297°
2026-05-06 17:05 30.34572 46.23901 35954 ft 440 kts 297°
2026-05-06 17:06 30.38161 46.18162 35957 ft 438 kts 297°
2026-05-06 17:06 30.41742 46.12425 35958 ft 441 kts 296°
2026-05-06 17:07 30.45340 46.06655 35958 ft 442 kts 296°
2026-05-06 17:07 30.48939 46.00873 35961 ft 442 kts 296°
2026-05-06 17:08 30.52537 45.95085 35964 ft 442 kts 296°
2026-05-06 17:08 30.56124 45.89305 35964 ft 442 kts 296°
2026-05-06 17:09 30.59696 45.83543 35962 ft 443 kts 296°
2026-05-06 17:09 30.63293 45.77732 35966 ft 443 kts 296°
2026-05-06 17:10 30.66887 45.71917 35968 ft 443 kts 296°
2026-05-06 17:10 30.70480 45.66095 35967 ft 443 kts 296°
2026-05-06 17:11 30.74072 45.60265 35964 ft 443 kts 296°
2026-05-06 17:11 30.77660 45.54434 35973 ft 444 kts 296°
2026-05-06 17:12 30.81248 45.48596 35964 ft 444 kts 296°
2026-05-06 17:12 30.84831 45.42754 35970 ft 444 kts 296°
2026-05-06 17:13 30.88413 45.36907 35976 ft 444 kts 296°
2026-05-06 17:13 30.91993 45.31055 35977 ft 444 kts 296°
2026-05-06 17:14 30.95571 45.25198 35982 ft 443 kts 296°
2026-05-06 17:14 30.99139 45.19346 35978 ft 443 kts 296°
2026-05-06 17:15 31.02710 45.13482 35980 ft 444 kts 296°
2026-05-06 17:15 31.06281 45.07610 35982 ft 444 kts 296°
2026-05-06 17:16 31.09823 45.01776 35985 ft 443 kts 296°
2026-05-06 17:16 31.13375 44.95916 35987 ft 443 kts 296°
2026-05-06 17:17 31.16929 44.90045 35990 ft 443 kts 296°
2026-05-06 17:17 31.20493 44.84149 35992 ft 445 kts 296°
2026-05-06 17:18 31.24060 44.78240 35991 ft 445 kts 296°
2026-05-06 17:18 31.27625 44.72324 35995 ft 445 kts 296°
2026-05-06 17:19 31.31189 44.66401 35996 ft 446 kts 296°
2026-05-06 17:19 31.34748 44.60475 35999 ft 445 kts 296°
2026-05-06 17:20 31.38314 44.54532 35987 ft 447 kts 296°
2026-05-06 17:20 31.41852 44.48624 35996 ft 447 kts 296°
2026-05-06 17:21 31.45423 44.42654 35998 ft 447 kts 296°
2026-05-06 17:21 31.48983 44.36691 35999 ft 446 kts 296°
2026-05-06 17:22 31.52301 44.30605 36004 ft 439 kts 289°
2026-05-06 17:22 31.54811 44.24147 36005 ft 433 kts 283°
2026-05-06 17:23 31.56943 44.17553 36002 ft 432 kts 283°
2026-05-06 17:23 31.59031 44.10966 36007 ft 431 kts 283°
2026-05-06 17:24 31.61121 44.04364 36009 ft 432 kts 283°
2026-05-06 17:24 31.63193 43.97808 36014 ft 431 kts 283°
2026-05-06 17:25 31.65279 43.91194 36011 ft 432 kts 283°
2026-05-06 17:25 31.67362 43.84578 36013 ft 432 kts 283°
2026-05-06 17:26 31.69442 43.77957 36016 ft 432 kts 283°
2026-05-06 17:26 31.71516 43.71346 36014 ft 431 kts 282°
2026-05-06 17:27 31.73586 43.64726 36016 ft 432 kts 282°
2026-05-06 17:27 31.75660 43.58087 36015 ft 433 kts 282°
2026-05-06 17:28 31.77727 43.51452 36015 ft 432 kts 282°
2026-05-06 17:28 31.79789 43.44819 36016 ft 432 kts 282°
2026-05-06 17:29 31.81848 43.38183 36020 ft 432 kts 282°
2026-05-06 17:29 31.83903 43.31545 36019 ft 432 kts 282°
2026-05-06 17:30 31.85935 43.24967 36019 ft 431 kts 282°
2026-05-06 17:30 31.87980 43.18338 36015 ft 430 kts 282°
2026-05-06 17:31 31.90020 43.11705 36016 ft 432 kts 282°
2026-05-06 17:31 31.92062 43.05056 36015 ft 432 kts 282°
2026-05-06 17:32 31.94099 42.98402 35997 ft 434 kts 282°
2026-05-06 17:32 31.96152 42.91687 36011 ft 438 kts 283°
2026-05-06 17:33 31.98212 42.84938 36013 ft 437 kts 282°
2026-05-06 17:33 32.00263 42.78196 36017 ft 438 kts 282°
2026-05-06 17:34 32.02313 42.71444 36015 ft 437 kts 282°
2026-05-06 17:34 32.04358 42.64699 36013 ft 437 kts 282°
2026-05-06 17:35 32.06396 42.57956 36009 ft 437 kts 282°
2026-05-06 17:35 32.08432 42.51208 36015 ft 436 kts 282°
2026-05-06 17:36 32.11532 42.41123 36012 ft 438 kts 286°
2026-05-06 17:36 32.14019 42.34533 36018 ft 441 kts 287°
2026-05-06 17:37 32.16534 42.27986 36016 ft 439 kts 287°
2026-05-06 17:37 32.19053 42.21410 36020 ft 440 kts 287°
2026-05-06 17:38 32.21575 42.14813 36018 ft 439 kts 287°
2026-05-06 17:38 32.24086 42.08229 36019 ft 440 kts 287°
2026-05-06 17:39 32.26601 42.01620 36021 ft 441 kts 287°
2026-05-06 17:39 32.29113 41.95007 36018 ft 441 kts 287°
2026-05-06 17:40 32.31621 41.88393 36019 ft 441 kts 287°
2026-05-06 17:40 32.34122 41.81783 36025 ft 441 kts 287°
2026-05-06 17:41 32.36626 41.75152 36024 ft 442 kts 287°
2026-05-06 17:41 32.39129 41.68512 36024 ft 441 kts 287°
2026-05-06 17:42 32.41606 41.61927 36030 ft 441 kts 287°
2026-05-06 17:42 32.44098 41.55290 36027 ft 441 kts 287°
2026-05-06 17:43 32.46585 41.48652 36033 ft 441 kts 287°
2026-05-06 17:43 32.49069 41.42015 36027 ft 440 kts 287°
2026-05-06 17:44 32.51544 41.35381 36027 ft 440 kts 287°
2026-05-06 17:44 32.54015 41.28749 36031 ft 438 kts 287°
2026-05-06 17:45 32.56476 41.22129 36026 ft 440 kts 287°
2026-05-06 17:45 32.58939 41.15494 36028 ft 439 kts 287°
2026-05-06 17:46 32.61397 41.08856 36035 ft 439 kts 287°
2026-05-06 17:46 32.63853 41.02210 36033 ft 440 kts 287°
2026-05-06 17:47 32.65892 40.96684 36037 ft 440 kts 287°
2026-05-06 17:47 32.68342 40.90032 36034 ft 440 kts 287°
2026-05-06 17:48 32.70787 40.83380 36037 ft 439 kts 287°
2026-05-06 17:48 32.73222 40.76741 36037 ft 439 kts 287°
2026-05-06 17:49 32.75656 40.70094 36036 ft 439 kts 287°
2026-05-06 17:49 32.78086 40.63442 36034 ft 439 kts 287°
2026-05-06 17:50 32.80511 40.56793 36037 ft 438 kts 287°
2026-05-06 17:50 32.82925 40.50160 36040 ft 438 kts 287°
2026-05-06 17:51 32.85340 40.43508 36040 ft 438 kts 287°
2026-05-06 17:51 32.87752 40.36855 36042 ft 438 kts 287°
2026-05-06 17:52 32.90143 40.30245 36043 ft 437 kts 287°
2026-05-06 17:52 32.92543 40.23599 36042 ft 437 kts 287°
2026-05-06 17:53 32.94937 40.16955 36040 ft 436 kts 287°
2026-05-06 17:53 32.97321 40.10324 36044 ft 436 kts 287°
2026-05-06 17:54 32.99710 40.03668 36042 ft 437 kts 287°
2026-05-06 17:54 33.02095 39.97008 36045 ft 437 kts 287°
2026-05-06 17:55 33.04472 39.90357 36044 ft 436 kts 287°
2026-05-06 17:55 33.06846 39.83699 36045 ft 436 kts 287°
2026-05-06 17:56 33.09200 39.77087 36042 ft 436 kts 287°
2026-05-06 17:56 33.11567 39.70423 36046 ft 436 kts 287°
2026-05-06 17:57 33.13930 39.63757 36045 ft 436 kts 287°
2026-05-06 17:57 33.16289 39.57091 36046 ft 435 kts 287°
2026-05-06 17:58 33.18640 39.50430 36047 ft 436 kts 287°
2026-05-06 17:58 33.20996 39.43746 36047 ft 437 kts 287°
2026-05-06 17:59 33.23348 39.37056 36047 ft 436 kts 287°
2026-05-06 17:59 33.25691 39.30378 36050 ft 436 kts 287°
2026-05-06 18:00 33.28025 39.23712 36045 ft 435 kts 287°
2026-05-06 18:00 33.30345 39.17076 36049 ft 436 kts 287°
2026-05-06 18:01 33.32678 39.10387 36045 ft 434 kts 287°
2026-05-06 18:01 33.34999 39.03716 36049 ft 435 kts 287°
2026-05-06 18:02 33.37323 38.97025 36049 ft 435 kts 287°
2026-05-06 18:02 33.39639 38.90343 36053 ft 434 kts 287°
2026-05-06 18:03 33.41948 38.83665 36053 ft 435 kts 287°
2026-05-06 18:03 33.44259 38.76968 36049 ft 435 kts 287°
2026-05-06 18:04 33.46568 38.70267 36049 ft 435 kts 287°
2026-05-06 18:04 33.49218 38.63712 36056 ft 440 kts 295°
2026-05-06 18:05 33.52458 38.57509 36060 ft 444 kts 296°
2026-05-06 18:05 33.55793 38.51276 36058 ft 444 kts 296°
2026-05-06 18:06 33.59124 38.45037 36059 ft 444 kts 296°
2026-05-06 18:06 33.62452 38.38793 36056 ft 445 kts 296°
2026-05-06 18:07 33.65775 38.32542 36057 ft 444 kts 296°
2026-05-06 18:07 33.69105 38.26271 36062 ft 446 kts 296°
2026-05-06 18:08 33.72430 38.19995 36056 ft 446 kts 296°
2026-05-06 18:08 33.75761 38.13699 36058 ft 447 kts 296°
2026-05-06 18:09 33.79071 38.07431 36061 ft 447 kts 297°
2026-05-06 18:09 33.82398 38.01118 36056 ft 447 kts 297°
2026-05-06 18:10 33.85723 37.94802 36067 ft 446 kts 297°
2026-05-06 18:10 33.89038 37.88488 36056 ft 446 kts 297°
2026-05-06 18:11 33.92353 37.82165 36061 ft 446 kts 297°
2026-05-06 18:11 33.95658 37.75850 36064 ft 446 kts 297°
2026-05-06 18:12 33.98968 37.69515 36066 ft 447 kts 297°
2026-05-06 18:12 34.02270 37.63185 36069 ft 445 kts 297°
2026-05-06 18:13 34.05570 37.56844 36070 ft 447 kts 297°
2026-05-06 18:13 34.08873 37.50490 36071 ft 447 kts 297°
2026-05-06 18:14 34.12169 37.44136 36082 ft 446 kts 297°
2026-05-06 18:14 34.15461 37.37779 36082 ft 446 kts 297°
2026-05-06 18:15 34.18746 37.31424 36083 ft 446 kts 297°
2026-05-06 18:15 34.22037 37.25140 36086 ft 446 kts 298°
2026-05-06 18:16 34.25452 37.18886 36090 ft 445 kts 298°
2026-05-06 18:16 34.28864 37.12653 36095 ft 444 kts 298°
2026-05-06 18:17 34.32273 37.06410 36097 ft 445 kts 298°
2026-05-06 18:17 34.35674 37.00172 36098 ft 444 kts 298°
2026-05-06 18:18 34.39068 36.93933 36098 ft 443 kts 298°
2026-05-06 18:18 34.42456 36.87695 36104 ft 441 kts 298°
2026-05-06 18:19 34.44118 36.84635 36099 ft 430 kts 298°
2026-05-06 18:19 34.45747 36.81626 36100 ft 423 kts 298°
2026-05-06 18:19 34.47334 36.78699 36100 ft 408 kts 298°
2026-05-06 18:19 34.48861 36.75873 36099 ft 394 kts 298°
2026-05-06 18:20 34.50313 36.73187 36103 ft 380 kts 298°
2026-05-06 18:20 34.51739 36.70548 36100 ft 367 kts 298°
2026-05-06 18:20 34.54486 36.65454 36106 ft 357 kts 298°
2026-05-06 18:21 34.57201 36.60415 36103 ft 356 kts 298°
2026-05-06 18:21 34.59908 36.55386 36102 ft 356 kts 298°
2026-05-06 18:22 34.62609 36.50360 36100 ft 355 kts 298°
2026-05-06 18:22 34.65301 36.45343 36111 ft 354 kts 298°
2026-05-06 18:23 34.67992 36.40322 36100 ft 355 kts 298°
2026-05-06 18:23 34.70680 36.35299 36102 ft 354 kts 298°
2026-05-06 18:24 34.73363 36.30277 36098 ft 354 kts 298°
2026-05-06 18:24 34.76041 36.25257 36101 ft 354 kts 298°
2026-05-06 18:25 34.78721 36.20227 36101 ft 354 kts 298°
2026-05-06 18:25 34.81393 36.15204 36100 ft 354 kts 298°
2026-05-06 18:26 34.84048 36.10208 36100 ft 354 kts 298°
2026-05-06 18:26 34.86717 36.05179 36093 ft 353 kts 298°
2026-05-06 18:27 34.89378 36.00154 36099 ft 353 kts 298°
2026-05-06 18:27 34.92040 35.95122 36097 ft 353 kts 298°
2026-05-06 18:28 34.94704 35.90080 36094 ft 354 kts 298°
2026-05-06 18:28 34.97348 35.85068 36091 ft 354 kts 298°
2026-05-06 18:29 35.00004 35.80025 36091 ft 353 kts 298°
2026-05-06 18:29 35.02655 35.74987 36089 ft 352 kts 298°
2026-05-06 18:30 35.05305 35.69941 36089 ft 354 kts 298°
2026-05-06 18:30 35.07961 35.64877 36078 ft 354 kts 298°
2026-05-06 18:31 35.10615 35.59810 36083 ft 354 kts 298°
2026-05-06 18:31 35.13265 35.54742 36095 ft 354 kts 298°
2026-05-06 18:32 35.15912 35.49673 36082 ft 354 kts 298°
2026-05-06 18:32 35.18559 35.44598 36080 ft 354 kts 298°
2026-05-06 18:33 35.21199 35.39528 36084 ft 353 kts 298°
2026-05-06 18:33 35.23843 35.34443 36084 ft 355 kts 298°
2026-05-06 18:34 35.26487 35.29350 36082 ft 354 kts 298°
2026-05-06 18:34 35.29126 35.24260 36083 ft 354 kts 298°
2026-05-06 18:35 35.31744 35.19203 36086 ft 354 kts 298°
2026-05-06 18:35 35.34377 35.14109 36086 ft 354 kts 298°
2026-05-06 18:36 35.37005 35.09020 36088 ft 353 kts 298°
2026-05-06 18:36 35.39623 35.03939 36098 ft 353 kts 298°
2026-05-06 18:37 35.41805 34.99700 36095 ft 353 kts 298°
2026-05-06 18:37 35.44867 34.93744 36089 ft 354 kts 298°
2026-05-06 18:38 35.47040 34.89509 36087 ft 353 kts 298°
2026-05-06 18:38 35.49661 34.84396 36088 ft 354 kts 298°
2026-05-06 18:39 35.52698 34.78460 36089 ft 353 kts 298°
2026-05-06 18:40 35.56192 34.71619 36088 ft 354 kts 298°
2026-05-06 18:40 35.58808 34.66490 36088 ft 354 kts 298°
2026-05-06 18:41 35.61422 34.61355 36089 ft 355 kts 298°
2026-05-06 18:41 35.64019 34.56247 36089 ft 355 kts 298°
2026-05-06 18:42 35.66634 34.51096 36086 ft 355 kts 299°
2026-05-06 18:42 35.69242 34.45949 36086 ft 355 kts 299°
2026-05-06 18:43 35.71858 34.40782 36084 ft 356 kts 299°
2026-05-06 18:43 35.74470 34.35613 36085 ft 356 kts 299°
2026-05-06 18:44 35.77079 34.30442 36086 ft 355 kts 299°
2026-05-06 18:44 35.79687 34.25267 36085 ft 356 kts 299°
2026-05-06 18:45 35.82292 34.20087 36085 ft 356 kts 299°
2026-05-06 18:45 35.84894 34.14908 36087 ft 355 kts 299°
2026-05-06 18:46 35.87483 34.09746 36084 ft 354 kts 299°
2026-05-06 18:46 35.90059 34.04553 36082 ft 354 kts 297°
2026-05-06 18:47 35.92329 33.99179 36085 ft 352 kts 291°
2026-05-06 18:47 35.94189 33.93638 36082 ft 351 kts 290°
2026-05-06 18:48 35.96018 33.88052 36083 ft 351 kts 290°
2026-05-06 18:48 35.97851 33.82450 36082 ft 352 kts 290°
2026-05-06 18:49 35.99683 33.76845 36084 ft 352 kts 290°
2026-05-06 18:49 36.01510 33.71249 36085 ft 351 kts 291°
2026-05-06 18:50 36.03329 33.65666 36083 ft 350 kts 291°
2026-05-06 18:50 36.05149 33.60071 36085 ft 352 kts 291°
2026-05-06 18:51 36.06970 33.54459 36087 ft 352 kts 291°
2026-05-06 18:51 36.08785 33.48858 36090 ft 351 kts 291°
2026-05-06 18:52 36.10601 33.43244 36087 ft 352 kts 291°
2026-05-06 18:52 36.12415 33.37621 36089 ft 352 kts 291°
2026-05-06 18:53 36.14225 33.32001 36089 ft 351 kts 291°
2026-05-06 18:53 36.16020 33.26419 36089 ft 352 kts 291°
2026-05-06 18:54 36.17831 33.20785 36092 ft 352 kts 291°
2026-05-06 18:54 36.19638 33.15147 36090 ft 351 kts 291°
2026-05-06 18:55 36.21436 33.09522 36096 ft 352 kts 291°
2026-05-06 18:55 36.23235 33.03887 36097 ft 350 kts 291°
2026-05-06 18:56 36.25030 32.98256 36090 ft 352 kts 291°
2026-05-06 18:56 36.26825 32.92609 36094 ft 352 kts 291°
2026-05-06 18:57 36.28619 32.86958 36101 ft 353 kts 291°
2026-05-06 18:57 36.30412 32.81298 36094 ft 352 kts 291°
2026-05-06 18:58 36.32193 32.75645 36102 ft 351 kts 290°
2026-05-06 18:58 36.33982 32.70005 36103 ft 352 kts 291°
2026-05-06 18:59 36.35776 32.64343 36109 ft 353 kts 291°
2026-05-06 18:59 36.37569 32.58674 36112 ft 353 kts 291°
2026-05-06 19:00 36.39354 32.53017 36118 ft 351 kts 291°
2026-05-06 19:00 36.41125 32.47392 36118 ft 353 kts 291°
2026-05-06 19:01 36.42912 32.41709 36119 ft 354 kts 291°
2026-05-06 19:01 36.44693 32.36032 36127 ft 353 kts 291°
2026-05-06 19:02 36.46475 32.30342 36122 ft 353 kts 291°
2026-05-06 19:02 36.48253 32.24654 36113 ft 352 kts 292°
2026-05-06 19:03 36.50024 32.18972 36108 ft 352 kts 292°
2026-05-06 19:03 36.51791 32.13299 36114 ft 352 kts 291°
2026-05-06 19:04 36.53564 32.07607 36106 ft 354 kts 291°
2026-05-06 19:04 36.55316 32.01907 36097 ft 352 kts 292°
2026-05-06 19:05 36.57060 31.96228 36096 ft 351 kts 292°
2026-05-06 19:05 36.58804 31.90539 36100 ft 352 kts 292°
2026-05-06 19:06 36.60530 31.84897 36093 ft 350 kts 292°
2026-05-06 19:06 36.62261 31.79228 36093 ft 351 kts 292°
2026-05-06 19:07 36.63997 31.73534 36091 ft 352 kts 292°
2026-05-06 19:07 36.65731 31.67832 36087 ft 351 kts 292°
2026-05-06 19:08 36.67419 31.62132 36089 ft 351 kts 291°
2026-05-06 19:08 36.69254 31.56495 36087 ft 351 kts 294°
2026-05-06 19:09 36.71126 31.50877 36085 ft 350 kts 294°
2026-05-06 19:09 36.72992 31.45270 36085 ft 351 kts 294°
2026-05-06 19:10 36.74878 31.39658 36088 ft 351 kts 291°
2026-05-06 19:10 36.76544 31.33944 36082 ft 350 kts 291°
2026-05-06 19:11 36.78185 31.28227 36081 ft 350 kts 291°
2026-05-06 19:11 36.79824 31.22517 36082 ft 350 kts 291°
2026-05-06 19:12 36.81458 31.16808 36085 ft 348 kts 291°
2026-05-06 19:12 36.83076 31.11152 36089 ft 348 kts 291°
2026-05-06 19:13 36.84708 31.05434 36092 ft 350 kts 291°
2026-05-06 19:13 36.86336 30.99715 36097 ft 350 kts 291°
2026-05-06 19:14 36.87961 30.93998 36097 ft 350 kts 292°
2026-05-06 19:14 36.89583 30.88276 36099 ft 349 kts 292°
2026-05-06 19:15 36.91214 30.82565 36102 ft 349 kts 292°
2026-05-06 19:15 36.93075 30.76965 36103 ft 348 kts 297°
2026-05-06 19:16 36.95187 30.71527 36101 ft 347 kts 298°
2026-05-06 19:16 36.97307 30.66139 36096 ft 348 kts 298°
2026-05-06 19:17 36.99436 30.60711 36099 ft 347 kts 298°
2026-05-06 19:17 37.01557 30.55291 36094 ft 346 kts 298°
2026-05-06 19:18 37.03675 30.49872 36097 ft 347 kts 298°
2026-05-06 19:18 37.05788 30.44449 36100 ft 347 kts 298°
2026-05-06 19:19 37.07900 30.39019 36109 ft 347 kts 298°
2026-05-06 19:19 37.10016 30.33576 36116 ft 347 kts 298°
2026-05-06 19:20 37.12125 30.28138 36111 ft 347 kts 298°
2026-05-06 19:20 37.14212 30.22746 36112 ft 345 kts 298°
2026-05-06 19:21 37.16310 30.17317 36114 ft 347 kts 298°
2026-05-06 19:21 37.18409 30.11878 36109 ft 346 kts 298°
2026-05-06 19:22 37.20504 30.06436 36118 ft 347 kts 298°
2026-05-06 19:22 37.22575 30.00982 36115 ft 345 kts 300°
2026-05-06 19:23 37.24771 29.95617 36117 ft 346 kts 300°
2026-05-06 19:23 37.26977 29.90242 36120 ft 346 kts 300°
2026-05-06 19:24 37.29173 29.84878 36115 ft 345 kts 300°
2026-05-06 19:24 37.31360 29.79528 36119 ft 345 kts 300°
2026-05-06 19:25 37.33578 29.74186 36126 ft 345 kts 299°
2026-05-06 19:25 37.35672 29.68786 36121 ft 344 kts 299°
2026-05-06 19:26 37.37759 29.63369 36133 ft 345 kts 299°
2026-05-06 19:26 37.39836 29.57977 36120 ft 345 kts 299°
2026-05-06 19:27 37.41921 29.52557 36115 ft 344 kts 299°
2026-05-06 19:27 37.44000 29.47154 36136 ft 343 kts 300°
2026-05-06 19:28 37.46069 29.41728 36133 ft 344 kts 298°
2026-05-06 19:28 37.47761 29.37155 36132 ft 344 kts 298°
2026-05-06 19:29 37.49774 29.31696 36131 ft 343 kts 298°
2026-05-06 19:29 37.51780 29.26245 36130 ft 343 kts 298°
2026-05-06 19:30 37.53787 29.20787 36134 ft 344 kts 298°
2026-05-06 19:30 37.55792 29.15321 36125 ft 343 kts 298°
2026-05-06 19:31 37.57787 29.09879 36127 ft 344 kts 298°
2026-05-06 19:31 37.60787 29.01669 36120 ft 343 kts 298°
2026-05-06 19:32 37.62776 28.96216 36117 ft 343 kts 298°
2026-05-06 19:32 37.64767 28.90752 36113 ft 344 kts 298°
2026-05-06 19:33 37.66764 28.85249 36114 ft 345 kts 298°
2026-05-06 19:33 37.68764 28.79737 36112 ft 345 kts 298°
2026-05-06 19:34 37.70768 28.74243 36109 ft 344 kts 298°
2026-05-06 19:34 37.72731 28.68751 36109 ft 345 kts 297°
2026-05-06 19:35 37.74700 28.63211 36106 ft 346 kts 297°
2026-05-06 19:35 37.76670 28.57657 36105 ft 347 kts 297°
2026-05-06 19:36 37.78640 28.52097 36099 ft 345 kts 297°
2026-05-06 19:36 37.80605 28.46535 36102 ft 347 kts 297°
2026-05-06 19:37 37.82576 28.40952 36101 ft 348 kts 297°
2026-05-06 19:37 37.84546 28.35355 36095 ft 348 kts 297°
2026-05-06 19:38 37.86510 28.29767 36091 ft 347 kts 297°
2026-05-06 19:38 37.88470 28.24181 36087 ft 347 kts 297°
2026-05-06 19:39 37.90426 28.18596 36084 ft 347 kts 297°
2026-05-06 19:39 37.92383 28.12999 36082 ft 348 kts 297°
2026-05-06 19:40 37.94336 28.07396 36093 ft 348 kts 297°
2026-05-06 19:40 37.96277 28.01826 36078 ft 348 kts 297°
2026-05-06 19:41 37.98226 27.96215 36081 ft 348 kts 297°
2026-05-06 19:41 38.00170 27.90617 36081 ft 347 kts 300°
2026-05-06 19:42 38.02419 27.85195 36084 ft 347 kts 300°
2026-05-06 19:42 38.04453 27.79619 36079 ft 349 kts 297°
2026-05-06 19:43 38.06419 27.74000 36087 ft 348 kts 297°
2026-05-06 19:43 38.08385 27.68371 36086 ft 350 kts 297°
2026-05-06 19:44 38.10350 27.62730 36087 ft 349 kts 297°
2026-05-06 19:44 38.12313 27.57093 36084 ft 348 kts 297°
2026-05-06 19:45 38.14247 27.51524 36087 ft 349 kts 297°
2026-05-06 19:45 38.16210 27.45862 36089 ft 350 kts 297°
2026-05-06 19:46 38.18168 27.40209 36092 ft 349 kts 296°
2026-05-06 19:46 38.20111 27.34590 36095 ft 349 kts 296°
2026-05-06 19:47 38.22060 27.28946 36100 ft 349 kts 296°
2026-05-06 19:47 38.24013 27.23275 36102 ft 350 kts 296°
2026-05-06 19:48 38.25963 27.17603 36101 ft 350 kts 296°
2026-05-06 19:48 38.27911 27.11925 36101 ft 350 kts 296°
2026-05-06 19:49 38.29856 27.06246 36100 ft 350 kts 296°
2026-05-06 19:49 38.31720 27.00513 36094 ft 351 kts 293°
2026-05-06 19:50 38.33190 26.94562 36096 ft 353 kts 290°
2026-05-06 19:50 38.34592 26.88557 36090 ft 354 kts 290°
2026-05-06 19:51 38.35986 26.82550 36086 ft 353 kts 290°
2026-05-06 19:51 38.37378 26.76552 36081 ft 353 kts 290°
2026-05-06 19:52 38.38769 26.70540 36081 ft 354 kts 290°
2026-05-06 19:52 38.40160 26.64513 36079 ft 354 kts 289°
2026-05-06 19:53 38.41547 26.58490 36080 ft 354 kts 289°
2026-05-06 19:53 38.42931 26.52461 36080 ft 355 kts 289°
2026-05-06 19:54 38.44315 26.46421 36077 ft 355 kts 289°
2026-05-06 19:54 38.45697 26.40374 36076 ft 355 kts 289°
2026-05-06 19:55 38.47074 26.34333 36080 ft 355 kts 289°
2026-05-06 19:55 38.48442 26.28316 36076 ft 355 kts 289°
2026-05-06 19:56 38.49824 26.22216 36073 ft 356 kts 289°
2026-05-06 19:56 38.51191 26.16170 36073 ft 357 kts 289°
2026-05-06 19:57 38.52562 26.10092 36078 ft 357 kts 289°
2026-05-06 19:57 38.53934 26.03991 36075 ft 357 kts 289°
2026-05-06 19:58 38.55304 25.97883 36080 ft 358 kts 289°
2026-05-06 19:58 38.56674 25.91758 36080 ft 358 kts 289°
2026-05-06 19:59 38.58040 25.85635 36081 ft 358 kts 289°
2026-05-06 19:59 38.59403 25.79506 36075 ft 358 kts 288°
2026-05-06 20:00 38.60762 25.73383 36077 ft 358 kts 288°
2026-05-06 20:00 38.62118 25.67251 36083 ft 358 kts 288°
2026-05-06 20:01 38.63472 25.61114 36082 ft 359 kts 288°
2026-05-06 20:01 38.64824 25.54969 36078 ft 359 kts 288°
2026-05-06 20:02 38.66162 25.48874 36072 ft 358 kts 288°
2026-05-06 20:02 38.67507 25.42727 36076 ft 359 kts 288°
2026-05-06 20:03 38.68851 25.36572 36072 ft 359 kts 288°
2026-05-06 20:03 38.70189 25.30421 36074 ft 358 kts 288°
2026-05-06 20:04 38.71526 25.24259 36069 ft 359 kts 288°
2026-05-06 20:04 38.72860 25.18097 36074 ft 359 kts 288°
2026-05-06 20:05 38.74190 25.11936 36076 ft 359 kts 288°
2026-05-06 20:05 38.75516 25.05771 36069 ft 358 kts 287°
2026-05-06 20:06 38.76838 24.99610 36070 ft 359 kts 287°
2026-05-06 20:06 38.78161 24.93429 36067 ft 360 kts 287°
2026-05-06 20:07 38.79481 24.87242 36064 ft 359 kts 287°
2026-05-06 20:07 38.80792 24.81080 36067 ft 359 kts 287°
2026-05-06 20:08 38.82107 24.74884 36065 ft 361 kts 287°
2026-05-06 20:08 38.83417 24.68692 36062 ft 360 kts 287°
2026-05-06 20:09 38.84726 24.62488 36061 ft 361 kts 287°
2026-05-06 20:09 38.86026 24.56309 36063 ft 360 kts 287°
2026-05-06 20:10 38.87329 24.50094 36057 ft 361 kts 287°
2026-05-06 20:10 38.88631 24.43870 36059 ft 361 kts 287°
2026-05-06 20:11 38.89928 24.37655 36054 ft 360 kts 287°
2026-05-06 20:11 38.91220 24.31435 36054 ft 360 kts 287°
2026-05-06 20:12 38.92293 24.26266 36052 ft 361 kts 287°
2026-05-06 20:12 38.93801 24.18971 36053 ft 362 kts 287°
2026-05-06 20:13 38.94871 24.13779 36052 ft 362 kts 287°
2026-05-06 20:13 38.96154 24.07538 36046 ft 361 kts 286°
2026-05-06 20:14 38.97433 24.01299 36043 ft 360 kts 286°
2026-05-06 20:14 38.98708 23.95061 36042 ft 361 kts 286°
2026-05-06 20:15 38.99984 23.88801 36053 ft 362 kts 286°
2026-05-06 20:15 39.01258 23.82533 36040 ft 362 kts 286°
2026-05-06 20:16 39.02526 23.76272 36037 ft 362 kts 286°
2026-05-06 20:16 39.03791 23.70010 36032 ft 362 kts 286°
2026-05-06 20:17 39.05052 23.63747 36031 ft 362 kts 286°
2026-05-06 20:17 39.06309 23.57488 36023 ft 361 kts 286°
2026-05-06 20:18 39.07554 23.51264 36018 ft 361 kts 286°
2026-05-06 20:18 39.08805 23.44993 36020 ft 362 kts 286°
2026-05-06 20:19 39.10055 23.38710 36017 ft 362 kts 286°
2026-05-06 20:19 39.11299 23.32438 36028 ft 360 kts 286°
2026-05-06 20:20 39.12538 23.26175 36035 ft 362 kts 286°
2026-05-06 20:20 39.13778 23.19882 36041 ft 362 kts 286°
2026-05-06 20:21 39.15012 23.13604 36052 ft 362 kts 286°
2026-05-06 20:21 39.16244 23.07315 36047 ft 362 kts 286°
2026-05-06 20:22 39.17472 23.01025 36047 ft 362 kts 286°
2026-05-06 20:22 39.18696 22.94739 36048 ft 361 kts 286°
2026-05-06 20:23 39.19917 22.88450 36052 ft 361 kts 286°
2026-05-06 20:23 39.21109 22.82200 36046 ft 362 kts 285°
2026-05-06 20:24 39.22541 22.76006 36050 ft 360 kts 290°
2026-05-06 20:24 39.24095 22.69868 36046 ft 360 kts 290°
2026-05-06 20:25 39.25655 22.63735 36051 ft 360 kts 290°
2026-05-06 20:25 39.27211 22.57596 36048 ft 359 kts 290°
2026-05-06 20:26 39.28754 22.51491 36054 ft 359 kts 290°
2026-05-06 20:26 39.30301 22.45352 36054 ft 360 kts 290°
2026-05-06 20:27 39.31845 22.39210 36055 ft 359 kts 290°
2026-05-06 20:27 39.33382 22.33080 36050 ft 358 kts 290°
2026-05-06 20:28 39.34914 22.26953 36053 ft 359 kts 290°
2026-05-06 20:28 39.36446 22.20809 36053 ft 359 kts 290°
2026-05-06 20:29 39.37963 22.14713 36052 ft 358 kts 290°
2026-05-06 20:29 39.39486 22.08578 36054 ft 358 kts 290°
2026-05-06 20:30 39.41758 21.99394 36057 ft 357 kts 290°
2026-05-06 20:31 39.43267 21.93271 36060 ft 357 kts 290°
2026-05-06 20:31 39.44774 21.87146 36065 ft 357 kts 290°
2026-05-06 20:32 39.46272 21.81039 36068 ft 356 kts 290°
2026-05-06 20:32 39.47765 21.74935 36069 ft 354 kts 290°
2026-05-06 20:33 39.49253 21.68841 36077 ft 354 kts 289°
2026-05-06 20:33 39.50738 21.62741 36087 ft 356 kts 289°
2026-05-06 20:34 39.52224 21.56620 36090 ft 356 kts 289°
2026-05-06 20:34 39.53698 21.50531 36100 ft 356 kts 289°
2026-05-06 20:35 39.55177 21.44416 36102 ft 355 kts 289°
2026-05-06 20:35 39.56646 21.38311 36108 ft 355 kts 289°
2026-05-06 20:36 39.58120 21.32182 36120 ft 356 kts 289°
2026-05-06 20:36 39.59589 21.26049 36120 ft 356 kts 289°
2026-05-06 20:37 39.61051 21.19937 36134 ft 356 kts 289°
2026-05-06 20:37 39.62511 21.13813 36140 ft 356 kts 289°
2026-05-06 20:38 39.63967 21.07690 36143 ft 355 kts 289°
2026-05-06 20:38 39.65423 21.01550 36154 ft 357 kts 289°
2026-05-06 20:39 39.66874 20.95414 36156 ft 355 kts 289°
2026-05-06 20:39 39.68318 20.89296 36148 ft 354 kts 289°
2026-05-06 20:40 39.69771 20.83190 36159 ft 355 kts 288°
2026-05-06 20:40 39.71153 20.77084 36159 ft 354 kts 288°
2026-05-06 20:41 39.72540 20.70948 36155 ft 354 kts 288°
2026-05-06 20:41 39.73920 20.64828 36150 ft 352 kts 288°
2026-05-06 20:42 39.75299 20.58705 36145 ft 354 kts 288°
2026-05-06 20:42 39.76677 20.52574 36141 ft 353 kts 288°
2026-05-06 20:43 39.78050 20.46439 36130 ft 352 kts 288°
2026-05-06 20:43 39.79420 20.40308 36123 ft 353 kts 287°
2026-05-06 20:44 39.80785 20.34166 36118 ft 353 kts 288°
2026-05-06 20:44 39.82149 20.28037 36120 ft 353 kts 287°
2026-05-06 20:45 39.83511 20.21887 36111 ft 354 kts 287°
2026-05-06 20:45 39.84871 20.15728 36114 ft 354 kts 287°
2026-05-06 20:46 39.86228 20.09566 36107 ft 353 kts 287°
2026-05-06 20:46 39.88339 20.03980 36138 ft 353 kts 317°
2026-05-06 20:47 39.92254 20.00005 36095 ft 358 kts 321°
2026-05-06 20:47 39.96255 19.96140 36098 ft 357 kts 321°
2026-05-06 20:48 40.00250 19.92287 36107 ft 357 kts 321°
2026-05-06 20:48 40.04239 19.88404 36106 ft 358 kts 320°
2026-05-06 20:49 40.08217 19.84494 36098 ft 357 kts 320°
2026-05-06 20:49 40.12170 19.80562 36096 ft 357 kts 320°
2026-05-06 20:50 40.16105 19.76611 36096 ft 356 kts 319°
2026-05-06 20:50 40.20020 19.72634 36100 ft 356 kts 319°
2026-05-06 20:51 40.23927 19.68621 36096 ft 358 kts 319°
2026-05-06 20:51 40.27826 19.64573 36087 ft 356 kts 318°
2026-05-06 20:52 40.31695 19.60515 36091 ft 356 kts 318°
2026-05-06 20:52 40.35554 19.56420 36083 ft 357 kts 317°
2026-05-06 20:53 40.39376 19.52323 36084 ft 357 kts 317°
2026-05-06 20:53 40.43209 19.48165 36088 ft 358 kts 317°
2026-05-06 20:54 40.47036 19.43969 36080 ft 358 kts 316°
2026-05-06 20:54 40.50845 19.39750 36082 ft 358 kts 316°
2026-05-06 20:55 40.54642 19.35495 36076 ft 359 kts 316°
2026-05-06 20:55 40.58428 19.31206 36074 ft 359 kts 315°
2026-05-06 20:56 40.62199 19.26886 36073 ft 360 kts 315°
2026-05-06 20:56 40.65956 19.22533 36075 ft 360 kts 315°
2026-05-06 20:57 40.69697 19.18149 36073 ft 360 kts 315°
2026-05-06 20:57 40.73421 19.13737 36077 ft 360 kts 314°
2026-05-06 20:58 40.77126 19.09298 36072 ft 360 kts 314°
2026-05-06 20:58 40.78739 19.06879 36078 ft 353 kts 300°
2026-05-06 20:58 40.79915 19.04048 36056 ft 352 kts 292°
2026-05-06 20:59 40.81707 18.98034 36057 ft 352 kts 286°
2026-05-06 20:59 40.83161 18.91858 36059 ft 351 kts 285°
2026-05-06 21:00 40.84575 18.85692 36057 ft 350 kts 285°
2026-05-06 21:00 40.85987 18.79526 36059 ft 351 kts 285°
2026-05-06 21:01 40.87162 18.74391 36061 ft 351 kts 285°
2026-05-06 21:01 40.88571 18.68215 36060 ft 351 kts 285°
2026-05-06 21:02 40.89974 18.62050 36056 ft 350 kts 285°
2026-05-06 21:02 40.91371 18.55894 36057 ft 349 kts 285°
2026-05-06 21:03 40.92763 18.49744 36053 ft 350 kts 284°
2026-05-06 21:03 40.94154 18.43580 36048 ft 349 kts 284°
2026-05-06 21:04 40.95538 18.37434 36051 ft 348 kts 284°
2026-05-06 21:04 40.96920 18.31278 36051 ft 350 kts 284°
2026-05-06 21:05 40.98300 18.25111 36048 ft 350 kts 284°
2026-05-06 21:05 40.99678 18.18940 36046 ft 349 kts 284°
2026-05-06 21:06 41.01050 18.12774 36043 ft 349 kts 284°
2026-05-06 21:06 41.02423 18.06590 36042 ft 351 kts 284°
2026-05-06 21:07 41.03799 18.00372 36037 ft 352 kts 284°
2026-05-06 21:07 41.05172 17.94154 36034 ft 352 kts 284°
2026-05-06 21:08 41.06533 17.87968 36031 ft 352 kts 284°
2026-05-06 21:08 41.07902 17.81734 36032 ft 352 kts 284°
2026-05-06 21:09 41.09270 17.75482 36026 ft 354 kts 284°
2026-05-06 21:09 41.10639 17.69208 36022 ft 353 kts 283°
2026-05-06 21:10 41.12004 17.62930 36023 ft 355 kts 283°
2026-05-06 21:10 41.13371 17.56631 36020 ft 355 kts 283°
2026-05-06 21:11 41.14734 17.50327 36014 ft 355 kts 283°
2026-05-06 21:11 41.16092 17.44032 36014 ft 355 kts 283°
2026-05-06 21:12 41.17437 17.37774 36013 ft 356 kts 283°
2026-05-06 21:12 41.18794 17.31446 36013 ft 357 kts 283°
2026-05-06 21:13 41.20148 17.25111 36012 ft 355 kts 283°
2026-05-06 21:13 41.21494 17.18796 36011 ft 356 kts 283°
2026-05-06 21:14 41.22841 17.12454 36017 ft 357 kts 283°
2026-05-06 21:14 41.24185 17.06113 36008 ft 356 kts 282°
2026-05-06 21:15 41.25524 16.99773 36013 ft 356 kts 282°
2026-05-06 21:15 41.26858 16.93441 36014 ft 355 kts 282°
2026-05-06 21:16 41.28187 16.87109 36017 ft 355 kts 282°
2026-05-06 21:16 41.29515 16.80762 36018 ft 357 kts 282°
2026-05-06 21:17 41.30844 16.74398 36015 ft 356 kts 282°
2026-05-06 21:17 41.32166 16.68041 36010 ft 357 kts 282°
2026-05-06 21:18 41.33491 16.61655 36010 ft 358 kts 282°
2026-05-06 21:18 41.34811 16.55269 36007 ft 358 kts 282°
2026-05-06 21:19 41.36129 16.48880 36001 ft 358 kts 282°
2026-05-06 21:19 41.37434 16.42525 35993 ft 358 kts 281°
2026-05-06 21:20 41.38747 16.36118 35994 ft 359 kts 281°
2026-05-06 21:20 41.40055 16.29710 35990 ft 358 kts 281°
2026-05-06 21:21 41.41361 16.23295 35989 ft 360 kts 281°
2026-05-06 21:21 41.42670 16.16849 35990 ft 360 kts 281°
2026-05-06 21:22 41.43974 16.10404 35995 ft 360 kts 281°
2026-05-06 21:22 41.45270 16.03976 36004 ft 360 kts 281°
2026-05-06 21:23 41.46570 15.97511 36010 ft 361 kts 281°
2026-05-06 21:23 41.47868 15.91030 36019 ft 361 kts 281°
2026-05-06 21:24 41.49162 15.84553 36023 ft 361 kts 281°
2026-05-06 21:24 41.50444 15.78115 36021 ft 362 kts 281°
2026-05-06 21:25 41.51732 15.71625 36025 ft 362 kts 280°
2026-05-06 21:25 41.53019 15.65117 36021 ft 363 kts 280°
2026-05-06 21:26 41.54303 15.58609 36020 ft 362 kts 280°
2026-05-06 21:26 41.55582 15.52103 36018 ft 362 kts 280°
2026-05-06 21:27 41.56858 15.45587 36015 ft 363 kts 280°
2026-05-06 21:27 41.57498 15.42314 35887 ft 365 kts 280°
2026-05-06 21:27 41.58139 15.39034 35704 ft 364 kts 280°
2026-05-06 21:27 41.58776 15.35762 35283 ft 364 kts 279°
2026-05-06 21:28 41.59415 15.32477 34780 ft 366 kts 279°
2026-05-06 21:28 41.60054 15.29180 34308 ft 368 kts 279°
2026-05-06 21:28 41.60689 15.25904 33815 ft 369 kts 279°
2026-05-06 21:28 41.61330 15.22583 33297 ft 369 kts 279°
2026-05-06 21:29 41.61972 15.19263 32810 ft 369 kts 279°
2026-05-06 21:29 41.62612 15.15947 32313 ft 369 kts 279°
2026-05-06 21:29 41.63251 15.12628 31806 ft 369 kts 279°
2026-05-06 21:29 41.63888 15.09311 31321 ft 368 kts 279°
2026-05-06 21:30 41.64522 15.06010 30917 ft 365 kts 279°
2026-05-06 21:30 41.65150 15.02734 30535 ft 362 kts 279°
2026-05-06 21:30 41.65770 14.99487 30141 ft 359 kts 279°
2026-05-06 21:30 41.66385 14.96268 29715 ft 356 kts 279°
2026-05-06 21:31 41.66996 14.93067 29266 ft 353 kts 279°
2026-05-06 21:31 41.67599 14.89892 28839 ft 351 kts 279°
2026-05-06 21:31 41.68199 14.86733 28404 ft 349 kts 279°
2026-05-06 21:31 41.68793 14.83601 27988 ft 347 kts 279°
2026-05-06 21:32 41.69384 14.80482 27575 ft 345 kts 279°
2026-05-06 21:32 41.70552 14.74294 26783 ft 341 kts 279°
2026-05-06 21:32 41.71131 14.71224 26376 ft 339 kts 279°
2026-05-06 21:33 41.71705 14.68171 25943 ft 338 kts 279°
2026-05-06 21:33 41.72277 14.65126 25551 ft 336 kts 279°
2026-05-06 21:33 41.72846 14.62093 25139 ft 335 kts 279°
2026-05-06 21:33 41.73412 14.59072 24767 ft 334 kts 279°
2026-05-06 21:34 41.73975 14.56062 24389 ft 333 kts 279°
2026-05-06 21:34 41.74535 14.53062 24012 ft 332 kts 279°
2026-05-06 21:34 41.75092 14.50069 23642 ft 331 kts 279°
2026-05-06 21:34 41.75647 14.47089 23219 ft 329 kts 279°
2026-05-06 21:35 41.76200 14.44113 22785 ft 328 kts 279°
2026-05-06 21:35 41.76749 14.41156 22408 ft 326 kts 279°
2026-05-06 21:35 41.77294 14.38210 22004 ft 325 kts 279°
2026-05-06 21:35 41.77837 14.35277 21540 ft 324 kts 279°
2026-05-06 21:36 41.78370 14.32393 21111 ft 323 kts 280°
2026-05-06 21:36 41.78906 14.29481 20776 ft 320 kts 280°
2026-05-06 21:36 41.79436 14.26596 20425 ft 318 kts 280°
2026-05-06 21:36 41.79965 14.23722 20067 ft 317 kts 280°
2026-05-06 21:37 41.80491 14.20861 19722 ft 316 kts 280°
2026-05-06 21:37 41.81012 14.18013 19365 ft 314 kts 280°
2026-05-06 21:37 41.81532 14.15173 19021 ft 313 kts 280°
2026-05-06 21:37 41.82049 14.12350 18678 ft 311 kts 280°
2026-05-06 21:38 41.82561 14.09536 18345 ft 310 kts 280°
2026-05-06 21:38 41.83072 14.06736 17944 ft 309 kts 280°
2026-05-06 21:38 41.83580 14.03940 17535 ft 308 kts 280°
2026-05-06 21:38 41.84085 14.01153 17113 ft 307 kts 280°
2026-05-06 21:39 41.84592 13.98370 16697 ft 307 kts 280°
2026-05-06 21:39 41.85095 13.95586 16306 ft 307 kts 280°
2026-05-06 21:39 41.85597 13.92805 15923 ft 307 kts 280°
2026-05-06 21:39 41.86099 13.90023 15551 ft 307 kts 280°
2026-05-06 21:40 41.86601 13.87242 15197 ft 307 kts 280°
2026-05-06 21:40 41.87100 13.84464 14827 ft 306 kts 280°
2026-05-06 21:40 41.87600 13.81690 14485 ft 306 kts 279°
2026-05-06 21:40 41.88098 13.78907 14132 ft 307 kts 280°
2026-05-06 21:41 41.88596 13.76128 13783 ft 306 kts 280°
2026-05-06 21:41 41.89094 13.73350 13399 ft 305 kts 280°
2026-05-06 21:41 41.89587 13.70584 13020 ft 304 kts 280°
2026-05-06 21:41 41.90077 13.67834 12694 ft 302 kts 281°
2026-05-06 21:42 41.90564 13.65101 12355 ft 303 kts 281°
2026-05-06 21:42 41.90983 13.62313 12170 ft 302 kts 269°
2026-05-06 21:42 41.90536 13.59644 12133 ft 292 kts 236°
2026-05-06 21:42 41.89111 13.57805 12086 ft 285 kts 203°
2026-05-06 21:43 41.87240 13.56964 12049 ft 284 kts 194°
2026-05-06 21:43 41.85320 13.56312 12023 ft 284 kts 192°
2026-05-06 21:43 41.83400 13.55699 12037 ft 283 kts 192°
2026-05-06 21:43 41.81604 13.54754 12044 ft 284 kts 216°
2026-05-06 21:44 41.80421 13.52642 12044 ft 292 kts 249°
2026-05-06 21:44 41.80312 13.49924 12024 ft 299 kts 283°
2026-05-06 21:44 41.81332 13.47509 12015 ft 303 kts 313°
2026-05-06 21:44 41.82884 13.45573 12009 ft 306 kts 317°
2026-05-06 21:45 41.84459 13.43642 12018 ft 306 kts 310°
2026-05-06 21:45 41.85752 13.41388 12045 ft 305 kts 301°
2026-05-06 21:45 41.86834 13.38952 12045 ft 304 kts 296°
2026-05-06 21:45 41.87783 13.36423 12042 ft 303 kts 292°
2026-05-06 21:46 41.88529 13.33795 12022 ft 300 kts 288°
2026-05-06 21:46 41.89317 13.31194 12025 ft 301 kts 290°
2026-05-06 21:46 41.90137 13.28602 12022 ft 301 kts 289°
2026-05-06 21:46 41.90842 13.25971 12024 ft 299 kts 286°
2026-05-06 21:47 41.91286 13.24219 12031 ft 299 kts 286°
2026-05-06 21:47 41.91950 13.21568 12027 ft 300 kts 286°
2026-05-06 21:47 41.92612 13.18911 12027 ft 300 kts 286°
2026-05-06 21:47 41.93271 13.16258 12030 ft 299 kts 286°
2026-05-06 21:48 41.94209 13.12460 12036 ft 349 kts 286°
2026-05-06 21:48 41.94981 13.09369 12032 ft 347 kts 286°
2026-05-06 21:48 41.95497 13.07294 12035 ft 346 kts 286°
2026-05-06 21:48 41.96256 13.04225 12023 ft 346 kts 286°
2026-05-06 21:49 41.97014 13.01158 12026 ft 346 kts 286°
2026-05-06 21:49 41.97774 12.98089 12035 ft 346 kts 286°
2026-05-06 21:49 41.98518 12.95063 12032 ft 345 kts 286°
2026-05-06 21:49 41.99249 12.92102 12018 ft 345 kts 286°
2026-05-06 21:50 42.00002 12.89042 12020 ft 344 kts 286°
2026-05-06 21:50 42.00753 12.85988 12020 ft 343 kts 286°
2026-05-06 21:50 42.01501 12.82939 12029 ft 344 kts 286°
2026-05-06 21:50 42.02250 12.79884 12020 ft 344 kts 286°
2026-05-06 21:51 42.02996 12.76840 12017 ft 343 kts 286°
2026-05-06 21:51 42.03740 12.73795 12019 ft 342 kts 286°
2026-05-06 21:51 42.04481 12.70761 11989 ft 341 kts 286°
2026-05-06 21:51 42.05215 12.67752 11701 ft 337 kts 286°
2026-05-06 21:52 42.05945 12.64753 11185 ft 337 kts 286°
2026-05-06 21:52 42.06671 12.61767 10719 ft 334 kts 286°
2026-05-06 21:52 42.07392 12.58806 10268 ft 332 kts 286°
2026-05-06 21:52 42.08107 12.55858 9820 ft 330 kts 285°
2026-05-06 21:53 42.08816 12.52933 9373 ft 327 kts 285°
2026-05-06 21:53 42.09514 12.50049 9108 ft 319 kts 285°
2026-05-06 21:53 42.10190 12.47253 8869 ft 310 kts 285°
2026-05-06 21:53 42.10839 12.44563 8636 ft 296 kts 285°
2026-05-06 21:54 42.11409 12.41998 8320 ft 285 kts 279°
2026-05-06 21:54 42.11447 12.39382 7775 ft 279 kts 256°
2026-05-06 21:54 42.10884 12.36897 7269 ft 276 kts 245°
2026-05-06 21:54 42.10085 12.34568 6803 ft 272 kts 240°
2026-05-06 21:55 42.09117 12.32404 6384 ft 268 kts 232°
2026-05-06 21:55 42.08022 12.30408 5958 ft 262 kts 229°
2026-05-06 21:55 42.06921 12.28488 5530 ft 258 kts 232°
2026-05-06 21:55 42.05876 12.26554 5124 ft 253 kts 231°
2026-05-06 21:56 42.04798 12.24714 4712 ft 249 kts 228°
2026-05-06 21:56 42.03776 12.22866 4328 ft 243 kts 232°
2026-05-06 21:56 42.02746 12.21121 3981 ft 233 kts 221°
2026-05-06 21:56 42.01310 12.20317 3666 ft 225 kts 181°
2026-05-06 21:57 41.99781 12.20530 3437 ft 217 kts 171°
2026-05-06 21:57 41.98318 12.20855 3198 ft 210 kts 170°
2026-05-06 21:57 41.96863 12.21208 2374 ft 224 kts 169°
2026-05-06 21:57 41.95316 12.21675 2163 ft 215 kts 165°
2026-05-06 21:58 41.93941 12.22202 2133 ft 200 kts 163°
2026-05-06 21:58 41.92632 12.22754 1918 ft 193 kts 162°
2026-05-06 21:58 41.91347 12.23305 1412 ft 194 kts 163°
2026-05-06 21:58 41.90097 12.23845 1142 ft 186 kts 163°
2026-05-06 21:59 41.88887 12.24349 912 ft 187 kts 163°
2026-05-06 21:59 41.87620 12.24872 644 ft 187 kts 162°
2026-05-06 21:59 41.86435 12.25372 376 ft 169 kts 161°
2026-05-06 21:59 41.85401 12.25812 264 ft 147 kts 161°
2026-05-06 22:00 41.84466 12.26198 33 ft 133 kts 161°
2026-05-06 22:00 41.83813 12.26481 28 ft 53 kts 163°
2026-05-06 22:00 41.83520 12.26605 28 ft 38 kts 164°
2026-05-06 22:00 41.83286 12.26661 27 ft 30 kts 178°
2026-05-06 22:01 41.83100 12.26626 28 ft 25 kts 193°
2026-05-06 22:01 41.82949 12.26583 29 ft 19 kts 191°
2026-05-06 22:01 41.82831 12.26577 28 ft 16 kts 172°
2026-05-06 22:01 41.82732 12.26610 28 ft 14 kts 164°
2026-05-06 22:02 41.82646 12.26644 28 ft 13 kts 163°
2026-05-06 22:02 41.82550 12.26685 30 ft 17 kts 162°
2026-05-06 22:02 41.82410 12.26745 26 ft 26 kts 162°
2026-05-06 22:02 41.82214 12.26829 25 ft 33 kts 162°
2026-05-06 22:03 41.81988 12.26925 26 ft 34 kts 162°
2026-05-06 22:03 41.81767 12.27019 26 ft 32 kts 163°
2026-05-06 22:03 41.81555 12.27104 26 ft 31 kts 163°
2026-05-06 22:03 41.81346 12.27192 27 ft 32 kts 162°
2026-05-06 22:04 41.81127 12.27281 24 ft 33 kts 163°
2026-05-06 22:04 41.80927 12.27348 25 ft 24 kts 179°
2026-05-06 22:04 41.80788 12.27326 23 ft 17 kts 189°
2026-05-06 22:04 41.80694 12.27287 26 ft 12 kts 211°
2026-05-06 22:05 41.80644 12.27186 23 ft 16 kts 249°
2026-05-06 22:05 41.80590 12.26997 23 ft 27 kts 249°
2026-05-06 22:05 41.80513 12.26722 24 ft 36 kts 249°
2026-05-06 22:05 41.80422 12.26391 23 ft 38 kts 249°
2026-05-06 22:06 41.80338 12.26088 24 ft 31 kts 250°
2026-05-06 22:06 41.80273 12.25850 24 ft 24 kts 250°
2026-05-06 22:06 41.80223 12.25667 25 ft 19 kts 250°
2026-05-06 22:06 41.80181 12.25515 28 ft 16 kts 250°
2026-05-06 22:07 41.80141 12.25368 30 ft 19 kts 250°
2026-05-06 22:07 41.80075 12.25206 29 ft 19 kts 219°
2026-05-06 22:07 41.79960 12.25123 25 ft 20 kts 204°
2026-05-06 22:07 41.79825 12.25041 23 ft 22 kts 205°
2026-05-06 22:08 41.79772 12.24973 26 ft 4 kts 267°
2026-05-06 22:08 41.79840 12.24879 25 ft 24 kts 341°
2026-05-06 22:08 41.79966 12.24808 25 ft 11 kts 313°
2026-05-06 22:08 41.79971 12.24705 23 ft 22 kts 256°
2026-05-06 22:09 41.79912 12.24494 25 ft 9 kts 248°
2026-05-06 22:09 41.79865 12.24438 25 ft 11 kts 199°
2026-05-06 22:09 41.79760 12.24467 26 ft 21 kts 160°
2026-05-06 22:09 41.79651 12.24526 26 ft 5 kts 143°
2026-05-06 22:10 41.79649 12.24537 24 ft 1 kts 112°
2026-05-06 22:10 41.79651 12.24593 25 ft 10 kts 79°
2026-05-06 22:10 41.79657 12.24622 25 ft 0 kts 74°